Temp
-32 -31 -31 -30 -30 -29 -29 -29 -29 -29 -29 -28 -28 -28 -27 -27 -27 -27 -27 -27 -27 -26 -25 -25 -25 -24 -24 -24 -24 -24 -24 -23 -23 -23 -23 -23 -23 -23 -22 -22 -22 -22 -21 -21 -21 -21 -21 -20 -20 -20 -20 -20 -20 -20 -20 -20 -20 -19 -20 -20 -20 -19 -19 -19 -18 -18 -18 -18 -18 -19 -19 -19 -18 -18
-33 -32 -31 -31 -30 -30 -29 -29 -29 -29 -29 -29 -29 -28 -28 -27 -27 -27 -27 -27 -27 -27 -26 -25 -25 -25 -24 -24 -24 -24 -24 -24 -24 -23 -23 -23 -23 -23 -22 -22 -22 -22 -22 -21 -21 -21 -21 -21 -20 -20 -20 -20 -20 -20 -20 -20 -20 -20 -20 -20 -20 -20 -20 -19 -19 -19 -18 -18 -18 -19 -19 -19 -19 -18
-33 -33 -32 -31 -31 -30 -30 -29 -29 -29 -28 -29 -29 -28 -28 -28 -27 -27 -27 -27 -27 -27 -27 -26 -26 -25 -25 -25 -24 -24 -24 -24 -24 -24 -23 -23 -23 -23 -23 -22 -22 -22 -22 -22 -22 -21 -21 -21 -21 -21 -20 -20 -20 -20 -20 -20 -20 -20 -20 -20 -20 -20 -20 -20 -20 -19 -19 -19 -18 -18 -19 -19 -19 -19
-34 -33 -33 -32 -32 -31 -30 -30 -30 -29 -29 -28 -28 -28 -28 -28 -28 -27 -27 -27 -27 -27 -27 -27 -27 -27 -26 -25 -25 -25 -25 -24 -24 -24 -24 -24 -23 -23 -23 -23 -23 -22 -22 -22 -22 -22 -22 -21 -21 -21 -21 -21 -21 -20 -20 -20 -20 -20 -20 -20 -20 -20 -20 -20 -20 -20 -20 -19 -19 -19 -19 -19 -19 -19
-34 -34 -33 -33 -33 -32 -31 -31 -30 -30 -29 -29 -28 -28 -28 -28 -28 -28 -27 -27 -27 -27 -28 -28 -27 -27 -27 -26 -26 -25 -25 -25 -25 -24 -24 -24 -23 -23 -23 -23 -23 -23 -22 -22 -22 -22 -22 -22 -21 -21 -21 -21 -21 -21 -21 -20 -20 -20 -20 -20 -20 -20 -20 -20 -20 -20 -20 -20 -20 -19 -19 -19 -19 -20
-34 -34 -34 -34 -33 -33 -32 -32 -31 -30 -30 -30 -29 -28 -28 -28 -28 -28 -28 -27 -27 -27 -28 -28 -28 -28 -27 -27 -26 -26 -25 -25 -25 -25 -24 -24 -24 -23 -23 -23 -23 -23 -23 -23 -22 -22 -22 -22 -22 -21 -21 -21 -21 -21 -21 -21 -21 -20 -20 -20 -20 -20 -20 -20 -20 -20 -20 -20 -20 -20 -20 -19 -19 -20
-34 -34 -35 -34 -34 -33 -33 -32 -32 -31 -31 -30 -30 -29 -29 -28 -28 -28 -28 -28 -27 -27 -27 -28 -28 -28 -27 -27 -27 -26 -26 -25 -25 -25 -25 -24 -24 -24 -23 -23 -23 -23 -23 -23 -23 -22 -22 -22 -22 -22 -21 -21 -21 -21 -21 -21 -21 -21 -21 -20 -20 -20 -20 -20 -20 -20 -20 -20 -20 -20 -20 -20 -20 -20
-34 -34 -34 -34 -34 -34 -34 -33 -33 -32 -32 -31 -31 -30 -30 -29 -28 -28 -28 -28 -28 -27 -27 -28 -28 -28 -28 -27 -27 -27 -27 -26 -26 -26 -26 -25 -25 -24 -24 -24 -23 -23 -23 -23 -23 -23 -23 -22 -22 -22 -22 -22 -21 -21 -21 -21 -21 -21 -21 -21 -21 -21 -21 -20 -20 -20 -20 -20 -20 -20 -20 -20 -20 -20
-34 -34 -34 -34 -34 -34 -34 -34 -34 -33 -32 -32 -31 -31 -30 -30 -29 -29 -28 -28 -28 -28 -27 -28 -28 -28 -28 -28 -28 -28 -28 -27 -27 -27 -26 -26 -25 -25 -25 -24 -24 -24 -24 -23 -23 -23 -23 -23 -22 -22 -22 -22 -22 -22 -22 -21 -21 -21 -21 -21 -21 -21 -21 -21 -21 -20 -20 -20 -20 -20 -20 -20 -20 -20
-34 -34 -34 -34 -34 -34 -34 -34 -34 -34 -33 -33 -32 -32 -31 -31 -30 -30 -29 -29 -28 -28 -27 -27 -28 -28 -28 -28 -28 -28 -28 -28 -27 -27 -27 -26 -26 -26 -25 -25 -25 -24 -24 -24 -24 -24 -23 -23 -23 -23 -23 -22 -22 -22 -22 -22 -22 -21 -21 -21 -21 -21 -21 -21 -21 -21 -21 -21 -20 -20 -20 -20 -20 -20
-33 -34 -34 -34 -34 -34 -34 -34 -34 -34 -34 -34 -33 -33 -32 -32 -31 -31 -30 -30 -29 -28 -28 -27 -27 -28 -28 -28 -28 -28 -28 -28 -28 -27 -27 -27 -26 -26 -26 -25 -25 -25 -25 -24 -24 -24 -24 -24 -24 -23 -23 -23 -23 -23 -22 -22 -22 -22 -21 -21 -21 -21 -21 -21 -21 -21 -21 -21 -21 -21 -20 -20 -20 -20
-33 -33 -34 -34 -34 -34 -34 -34 -34 -34 -34 -34 -34 -34 -33 -33 -32 -32 -31 -31 -30 -29 -29 -28 -28 -28 -28 -28 -28 -28 -29 -28 -28 -28 -28 -27 -27 -27 -26 -26 -26 -25 -25 -25 -25 -24 -24 -24 -24 -24 -24 -24 -24 -23 -23 -23 -22 -22 -22 -22 -22 -21 -21 -21 -22 -21 -21 -21 -21 -21 -21 -21 -20 -20
-33 -33 -33 -34 -34 -34 -34 -34 -34 -34 -34 -35 -35 -34 -34 -34 -33 -33 -32 -32 -31 -31 -30 -29 -29 -28 -28 -28 -28 -28 -28 -28 -28 -28 -28 -28 -28 -27 -27 -27 -26 -26 -25 -25 -25 -25 -25 -24 -24 -24 -24 -24 -24 -24 -24 -23 -23 -22 -22 -22 -22 -22 -22 -21 -22 -22 -22 -22 -22 -21 -21 -21 -21 -21
-33 -33 -33 -33 -34 -34 -34 -34 -34 -34 -34 -34 -34 -35 -35 -35 -34 -34 -34 -33 -32 -32 -31 -31 -30 -30 -29 -29 -28 -28 -28 -28 -28 -28 -28 -28 -28 -28 -28 -27 -27 -26 -26 -26 -25 -25 -25 -25 -25 -25 -24 -24 -24 -24 -24 -24 -24 -23 -23 -23 -22 -23 -22 -22 -22 -22 -22 -22 -22 -22 -22 -22 -21 -21
-33 -33 -33 -33 -33 -33 -34 -34 -34 -34 -34 -34 -34 -34 -35 -35 -35 -35 -35 -34 -34 -33 -32 -32 -31 -31 -30 -30 -30 -29 -29 -28 -28 -28 -28 -28 -28 -28 -28 -28 -27 -27 -27 -26 -26 -25 -25 -25 -25 -25 -25 -25 -24 -24 -24 -24 -24 -24 -24 -23 -23 -23 -23 -23 -22 -22 -22 -22 -22 -22 -22 -22 -22 -22
-33 -33 -33 -33 -33 -33 -33 -33 -34 -34 -34 -34 -34 -34 -34 -35 -35 -35 -35 -35 -35 -34 -34 -33 -33 -32 -32 -31 -31 -30 -30 -30 -29 -29 -28 -28 -28 -28 -28 -28 -28 -28 -28 -27 -27 -26 -26 -26 -26 -25 -25 -25 -25 -25 -25 -25 -24 -24 -24 -24 -24 -23 -23 -23 -23 -23 -22 -22 -22 -23 -23 -23 -22 -22
-33 -33 -33 -33 -33 -33 -33 -33 -33 -34 -34 -34 -34 -34 -34 -34 -35 -35 -35 -35 -35 -35 -35 -35 -34 -34 -34 -33 -32 -32 -31 -31 -30 -30 -29 -29 -29 -28 -28 -28 -28 -28 -28 -28 -28 -27 -27 -27 -26 -26 -25 -25 -25 -25 -25 -25 -25 -25 -25 -24 -24 -24 -24 -23 -23 -23 -23 -23 -23 -23 -23 -23 -23 -23
-33 -33 -33 -33 -33 -33 -33 -33 -33 -33 -34 -34 -34 -34 -34 -34 -34 -35 -35 -35 -35 -35 -35 -35 -35 -35 -35 -34 -34 -34 -33 -32 -32 -31 -31 -30 -30 -29 -28 -28 -28 -28 -28 -28 -28 -28 -27 -27 -27 -26 -26 -25 -25 -25 -25 -25 -25 -25 -25 -25 -25 -24 -24 -24 -24 -23 -23 -23 -23 -23 -23 -23 -23 -23
-33 -33 -33 -33 -33 -33 -33 -33 -33 -33 -33 -33 -34 -34 -34 -34 -34 -34 -35 -35 -35 -35 -36 -36 -36 -36 -36 -35 -35 -35 -34 -34 -33 -33 -32 -32 -31 -31 -30 -29 -29 -28 -28 -28 -28 -28 -27 -27 -27 -27 -26 -26 -26 -26 -25 -25 -25 -25 -25 -25 -25 -25 -25 -24 -24 -24 -24 -24 -23 -23 -23 -23 -23 -23
-33 -33 -33 -33 -33 -33 -33 -33 -33 -33 -33 -33 -34 -34 -34 -34 -34 -34 -34 -34 -35 -35 -36 -36 -36 -36 -36 -36 -36 -35 -35 -35 -35 -35 -34 -34 -33 -32 -32 -31 -30 -30 -29 -29 -28 -28 -28 -27 -27 -27 -27 -27 -26 -26 -26 -26 -26 -25 -25 -25 -25 -25 -25 -25 -25 -24 -24 -24 -24 -24 -23 -23 -24 -24
-33 -33 -33 -33 -33 -33 -33 -33 -33 -33 -34 -34 -34 -34 -34 -34 -34 -34 -34 -34 -34 -35 -35 -36 -36 -36 -36 -36 -36 -36 -36 -36 -36 -36 -36 -36 -35 -34 -34 -33 -32 -32 -31 -30 -30 -29 -28 -28 -28 -28 -27 -27 -27 -26 -26 -26 -26 -26 -25 -25 -25 -25 -25 -25 -25 -25 -24 -24 -24 -24 -24 -24 -24 -24
-33 -33 -33 -33 -33 -33 -33 -33 -33 -34 -34 -34 -34 -34 -34 -34 -34 -34 -34 -34 -34 -34 -35 -35 -35 -35 -36 -36 -37 -37 -37 -37 -37 -37 -37 -37 -37 -36 -35 -35 -34 -34 -33 -32 -32 -31 -30 -29 -29 -29 -28 -27 -27 -27 -26 -26 -26 -26 -26 -25 -25 -25 -25 -25 -25 -25 -25 -25 -24 -24 -24 -24 -24 -24
-33 -33 -33 -33 -33 -33 -33 -33 -33 -34 -34 -34 -34 -34 -34 -34 -34 -34 -34 -34 -34 -34 -35 -35 -35 -35 -35 -36 -36 -37 -37 -37 -37 -37 -37 -38 -38 -37 -37 -36 -36 -35 -35 -34 -34 -33 -32 -32 -31 -30 -30 -29 -28 -27 -27 -27 -26 -26 -26 -26 -26 -25 -25 -25 -25 -25 -25 -25 -25 -25 -25 -25 -25 -24
-33 -33 -33 -33 -33 -33 -33 -33 -34 -34 -34 -34 -34 -34 -34 -34 -34 -34 -34 -34 -35 -35 -35 -35 -35 -35 -35 -35 -36 -36 -37 -37 -37 -37 -38 -38 -38 -38 -38 -38 -37 -37 -37 -37 -36 -35 -35 -34 -34 -33 -32 -31 -30 -29 -28 -27 -27 -27 -27 -26 -26 -26 -26 -25 -25 -25 -25 -25 -25 -25 -25 -25 -25 -25
-33 -33 -33 -33 -33 -33 -33 -33 -34 -34 -34 -34 -34 -34 -34 -34 -34 -34 -34 -34 -35 -35 -35 -35 -35 -35 -35 -35 -35 -36 -36 -37 -37 -38 -38 -38 -38 -38 -38 -38 -38 -38 -38 -38 -37 -37 -37 -36 -36 -35 -34 -33 -32 -31 -30 -29 -28 -28 -27 -27 -26 -26 -26 -26 -25 -25 -25 -25 -25 -25 -25 -25 -25 -25
-33 -33 -33 -33 -33 -33 -33 -33 -34 -34 -34 -34 -34 -34 -34 -34 -34 -34 -34 -35 -35 -35 -35 -35 -35 -35 -35 -35 -36 -36 -36 -36 -37 -37 -38 -38 -38 -38 -38 -38 -38 -38 -38 -38 -38 -38 -38 -37 -37 -37 -36 -35 -34 -33 -32 -31 -30 -29 -28 -28 -27 -27 -26 -26 -26 -25 -25 -25 -25 -25 -25 -25 -25 -26
-33 -33 -33 -33 -33 -33 -33 -34 -33 -33 -34 -34 -34 -34 -34 -34 -35 -35 -35 -35 -35 -35 -35 -35 -35 -36 -36 -36 -36 -36 -36 -36 -37 -37 -37 -38 -38 -38 -38 -38 -38 -38 -38 -38 -38 -38 -38 -38 -38 -37 -37 -36 -36 -35 -34 -33 -32 -31 -30 -29 -28 -28 -27 -27 -26 -26 -26 -26 -26 -26 -26 -26 -26 -26
-33 -33 -33 -33 -33 -33 -34 -34 -33 -33 -33 -34 -34 -34 -34 -34 -34 -35 -35 -35 -35 -35 -35 -35 -35 -36 -36 -36 -36 -36 -36 -36 -36 -36 -37 -37 -38 -38 -38 -38 -38 -38 -38 -38 -38 -38 -37 -38 -37 -37 -37 -37 -37 -36 -35 -35 -34 -33 -32 -31 -30 -29 -29 -28 -27 -27 -27 -27 -27 -26 -26 -26 -26 -26
-33 -33 -33 -33 -33 -33 -34 -34 -34 -34 -34 -34 -34 -34 -34 -34 -34 -35 -35 -35 -35 -35 -36 -36 -36 -36 -36 -36 -36 -36 -36 -36 -36 -36 -36 -37 -37 -38 -38 -38 -38 -38 -38 -38 -38 -38 -37 -37 -37 -37 -37 -37 -37 -37 -36 -36 -35 -34 -33 -33 -32 -31 -30 -29 -29 -28 -28 -28 -28 -27 -27 -27 -26 -26
-33 -33 -33 -33 -33 -33 -33 -34 -34 -34 -34 -34 -34 -34 -34 -34 -34 -35 -35 -35 -35 -36 -36 -36 -36 -36 -36 -36 -36 -36 -36 -36 -36 -36 -36 -37 -37 -37 -38 -38 -38 -38 -38 -38 -38 -38 -38 -37 -37 -37 -37 -37 -37 -37 -37 -37 -36 -35 -35 -34 -33 -33 -32 -31 -30 -30 -29 -29 -29 -28 -28 -27 -27 -27
-33 -33 -33 -33 -33 -33 -33 -33 -34 -34 -34 -34 -34 -34 -34 -34 -34 -35 -35 -35 -35 -36 -36 -36 -36 -36 -37 -36 -36 -36 -36 -36 -36 -36 -36 -36 -37 -37 -37 -37 -37 -38 -38 -38 -38 -38 -38 -37 -37 -37 -37 -37 -37 -37 -37 -37 -36 -36 -35 -35 -35 -34 -34 -33 -32 -31 -31 -30 -30 -30 -29 -28 -28 -28
-33 -33 -33 -33 -33 -33 -33 -33 -33 -33 -34 -34 -34 -34 -34 -34 -34 -35 -35 -35 -35 -36 -36 -37 -37 -37 -37 -37 -36 -36 -36 -36 -36 -36 -36 -36 -36 -36 -37 -37 -37 -37 -38 -38 -38 -38 -38 -37 -37 -37 -37 -37 -37 -37 -36 -36 -36 -36 -36 -36 -35 -35 -35 -34 -34 -33 -32 -32 -31 -31 -30 -30 -29 -29
-33 -33 -33 -33 -33 -33 -33 -33 -33 -33 -33 -33 -34 -34 -34 -34 -34 -34 -35 -35 -35 -36 -36 -37 -37 -37 -37 -37 -37 -37 -37 -36 -36 -36 -36 -36 -36 -36 -36 -37 -37 -37 -37 -37 -37 -37 -37 -37 -37 -37 -37 -37 -37 -36 -36 -36 -36 -36 -36 -36 -36 -36 -36 -35 -35 -34 -33 -33 -32 -32 -32 -32 -31 -31
-33 -33 -33 -33 -33 -33 -33 -33 -33 -33 -33 -33 -33 -34 -34 -34 -34 -34 -34 -35 -35 -36 -36 -37 -37 -37 -37 -37 -37 -37 -37 -37 -36 -36 -36 -36 -36 -36 -36 -37 -37 -37 -37 -37 -37 -37 -37 -37 -37 -37 -37 -37 -37 -36 -36 -36 -36 -36 -36 -36 -36 -36 -36 -36 -35 -35 -35 -34 -34 -33 -33 -33 -33 -32
-33 -33 -33 -33 -33 -33 -33 -33 -33 -33 -33 -33 -33 -33 -33 -34 -34 -34 -34 -35 -35 -36 -36 -37 -37 -37 -37 -37 -37 -37 -37 -37 -36 -36 -36 -36 -36 -36 -36 -36 -37 -37 -37 -37 -37 -37 -37 -37 -37 -37 -37 -37 -37 -36 -36 -36 -36 -36 -36 -36 -36 -36 -36 -36 -36 -35 -35 -35 -35 -34 -34 -34 -34 -33
-33 -33 -33 -33 -33 -33 -33 -33 -33 -33 -33 -33 -33 -33 -33 -33 -34 -34 -34 -34 -35 -36 -36 -37 -37 -37 -37 -37 -37 -37 -37 -37 -36 -36 -36 -36 -36 -36 -36 -36 -36 -37 -37 -37 -37 -37 -37 -37 -37 -37 -37 -37 -37 -36 -36 -36 -36 -36 -36 -36 -36 -36 -36 -36 -36 -35 -35 -35 -35 -35 -34 -34 -34 -34
-32 -33 -33 -33 -33 -33 -33 -33 -33 -33 -33 -33 -33 -33 -33 -33 -33 -34 -34 -34 -35 -35 -36 -37 -37 -37 -37 -37 -37 -37 -37 -37 -36 -36 -36 -36 -36 -36 -36 -36 -36 -36 -36 -37 -37 -37 -37 -37 -37 -37 -37 -37 -37 -36 -36 -36 -36 -36 -36 -36 -36 -35 -35 -35 -35 -35 -35 -35 -35 -35 -35 -35 -34 -34
-32 -32 -33 -33 -33 -33 -33 -33 -33 -33 -33 -33 -33 -33 -33 -33 -33 -34 -34 -34 -34 -35 -36 -37 -37 -37 -37 -37 -37 -37 -37 -37 -36 -36 -36 -36 -36 -36 -36 -36 -36 -36 -36 -36 -36 -37 -37 -37 -37 -37 -37 -37 -37 -36 -36 -36 -36 -36 -36 -35 -35 -35 -35 -35 -35 -35 -35 -35 -35 -35 -35 -35 -34 -34
-32 -32 -32 -33 -33 -33 -33 -33 -33 -33 -33 -32 -33 -33 -33 -33 -33 -34 -34 -34 -34 -35 -36 -36 -37 -37 -37 -37 -37 -37 -37 -36 -36 -36 -36 -36 -36 -36 -36 -36 -36 -36 -36 -36 -36 -36 -37 -37 -37 -37 -37 -36 -36 -36 -36 -36 -36 -36 -36 -35 -35 -35 -35 -35 -35 -35 -35 -35 -35 -35 -35 -35 -35 -35
-32 -32 -32 -32 -33 -33 -33 -33 -33 -33 -33 -32 -32 -33 -33 -33 -33 -33 -34 -34 -34 -35 -35 -36 -36 -37 -37 -37 -37 -37 -36 -36 -36 -36 -36 -36 -36 -36 -36 -36 -36 -36 -36 -36 -36 -36 -36 -36 -36 -36 -36 -36 -36 -36 -36 -36 -36 -36 -36 -36 -35 -35 -35 -35 -35 -35 -35 -35 -35 -35 -35 -35 -35 -35
-32 -32 -32 -32 -32 -32 -33 -33 -33 -33 -33 -32 -32 -33 -33 -33 -33 -33 -34 -34 -34 -34 -35 -36 -36 -36 -36 -36 -36 -36 -36 -36 -36 -36 -36 -36 -36 -36 -36 -36 -36 -36 -36 -36 -36 -36 -36 -36 -36 -36 -36 -36 -36 -36 -36 -36 -36 -36 -36 -36 -36 -35 -35 -35 -35 -35 -35 -35 -35 -35 -35 -35 -35 -35
-32 -32 -32 -32 -32 -33 -33 -33 -33 -33 -33 -32 -32 -32 -33 -33 -33 -33 -33 -34 -34 -34 -34 -35 -36 -36 -36 -36 -36 -36 -36 -36 -36 -36 -36 -36 -36 -36 -36 -36 -36 -36 -36 -36 -36 -36 -36 -36 -36 -36 -36 -36 -36 -36 -36 -36 -36 -36 -36 -36 -36 -36 -35 -35 -35 -35 -35 -35 -35 -35 -35 -35 -35 -35
-32 -32 -32 -32 -32 -33 -33 -33 -33 -33 -33 -32 -32 -32 -32 -33 -33 -33 -33 -34 -34 -34 -34 -34 -35 -35 -36 -36 -36 -36 -36 -36 -36 -35 -36 -36 -36 -36 -36 -36 -36 -36 -36 -36 -36 -36 -36 -36 -36 -36 -36 -36 -36 -36 -36 -36 -36 -36 -36 -36 -36 -36 -36 -35 -35 -35 -35 -35 -35 -35 -35 -35 -35 -35
-32 -32 -32 -32 -32 -33 -33 -33 -33 -33 -33 -32 -32 -32 -32 -32 -33 -33 -33 -33 -33 -34 -34 -34 -34 -35 -35 -35 -35 -35 -35 -35 -35 -35 -35 -35 -35 -35 -35 -35 -35 -35 -35 -35 -35 -35 -36 -36 -36 -36 -36 -36 -36 -35 -35 -35 -35 -35 -36 -36 -36 -36 -36 -35 -35 -35 -35 -35 -35 -35 -35 -35 -35 -34
-32 -32 -32 -32 -32 -32 -33 -33 -33 -33 -33 -32 -32 -32 -32 -32 -32 -33 -33 -33 -33 -33 -34 -34 -34 -34 -35 -35 -35 -35 -35 -35 -35 -35 -35 -35 -35 -35 -35 -35 -35 -35 -35 -35 -35 -35 -35 -35 -35 -35 -35 -35 -35 -35 -35 -35 -35 -35 -35 -35 -35 -35 -35 -35 -35 -35 -35 -35 -35 -35 -35 -34 -34 -34
Height
5306 5310 5315 5321 5328 5334 5340 5348 5355 5360 5366 5373 5379 5385 5392 5399 5405 5409 5415 5423 5431 5436 5439 5445 5452 5457 5461 5469 5475 5481 5488 5494 5499 5504 5509 5515 5521 5527 5532 5537 5543 5548 5554 5559 5565 5570 5575 5579 5584 5589 5595 5600 5605 5610 5614 5618 5623 5628 5632 5636 5639 5644 5648 5652 5656 5659 5662 5665 5668 5670 5672 5675 5679 5683
5298 5301 5306 5311 5316 5321 5327 5334 5342 5348 5354 5361 5367 5373 5380 5386 5392 5398 5404 5414 5423 5426 5428 5435 5442 5445 5450 5457 5464 5471 5478 5484 5489 5494 5499 5504 5510 5516 5521 5527 5533 5538 5543 5549 5555 5560 5566 5571 5576 5582 5587 5591 5596 5601 5606 5610 5615 5620 5624 5628 5632 5636 5640 5645 5650 5653 5656 5659 5661 5663 5665 5668 5672 5675
5292 5294 5297 5301 5306 5310 5315 5322 5328 5335 5342 5349 5355 5361 5368 5373 5380 5388 5393 5403 5415 5419 5419 5425 5430 5433 5439 5446 5452 5458 5465 5471 5476 5482 5488 5493 5499 5505 5511 5517 5523 5528 5533 5539 5544 5550 5555 5561 5567 5572 5578 5583 5587 5592 5597 5602 5606 5611 5616 5620 5624 5628 5632 5637 5642 5646 5649 5652 5656 5658 5660 5663 5666 5669
5287 5288 5290 5293 5296 5300 5305 5310 5315 5322 5328 5336 5343 5349 5357 5362 5368 5375 5381 5392 5407 5410 5410 5416 5419 5421 5427 5433 5438 5444 5451 5458 5463 5469 5475 5481 5488 5494 5500 5507 5512 5517 5523 5528 5534 5539 5544 5550 5556 5562 5568 5573 5578 5583 5588 5593 5598 5603 5608 5612 5616 5620 5625 5629 5634 5638 5642 5645 5649 5652 5654 5657 5660 5663
5284 5284 5285 5286 5288 5291 5295 5300 5304 5310 5315 5322 5329 5337 5344 5350 5356 5362 5368 5380 5396 5399 5398 5404 5410 5410 5413 5419 5425 5433 5441 5446 5451 5456 5463 5470 5476 5483 5489 5495 5501 5507 5512 5518 5523 5529 5534 5540 5546 5552 5558 5563 5568 5573 5578 5584 5589 5594 5598 5603 5607 5612 5617 5621 5626 5630 5634 5638 5642 5645 5648 5651 5654 5656
5282 5282 5281 5281 5282 5284 5287 5291 5294 5299 5304 5309 5316 5323 5330 5338 5344 5351 5357 5367 5381 5386 5386 5393 5400 5402 5404 5410 5416 5423 5429 5435 5439 5444 5451 5458 5464 5471 5478 5484 5489 5495 5501 5507 5512 5518 5524 5530 5536 5541 5546 5552 5557 5562 5568 5573 5578 5584 5589 5594 5598 5603 5608 5613 5617 5622 5626 5630 5634 5637 5641 5645 5648 5650
5281 5280 5280 5279 5279 5279 5281 5284 5286 5289 5293 5298 5304 5310 5317 5325 5332 5339 5345 5353 5364 5372 5376 5382 5390 5394 5397 5403 5408 5412 5419 5426 5429 5433 5439 5445 5451 5458 5465 5471 5477 5484 5490 5495 5501 5508 5514 5520 5525 5531 5536 5541 5546 5551 5556 5562 5568 5573 5579 5584 5589 5594 5599 5604 5609 5614 5618 5622 5626 5629 5634 5638 5641 5644
5280 5279 5278 5277 5277 5277 5277 5278 5279 5282 5285 5288 5293 5299 5304 5311 5319 5324 5330 5339 5349 5357 5364 5372 5380 5384 5387 5393 5399 5403 5407 5412 5414 5418 5425 5431 5437 5445 5451 5457 5465 5472 5478 5484 5491 5497 5503 5509 5514 5519 5525 5530 5535 5540 5545 5551 5557 5563 5568 5574 5579 5584 5589 5595 5600 5605 5610 5614 5617 5621 5625 5630 5634 5637
5279 5278 5277 5276 5276 5275 5275 5275 5275 5276 5278 5281 5284 5289 5293 5299 5305 5310 5316 5324 5334 5343 5352 5362 5369 5371 5374 5381 5388 5391 5392 5396 5399 5403 5412 5419 5425 5432 5438 5444 5453 5461 5466 5473 5480 5486 5492 5497 5502 5508 5513 5518 5524 5529 5535 5540 5546 5552 5558 5563 5569 5574 5579 5585 5590 5595 5600 5605 5609 5613 5617 5621 5625 5629
5278 5277 5276 5275 5275 5274 5273 5273 5273 5273 5274 5275 5278 5281 5284 5288 5293 5298 5304 5311 5319 5328 5339 5349 5355 5358 5361 5369 5376 5379 5380 5384 5388 5391 5398 5406 5413 5419 5426 5433 5441 5449 5454 5460 5467 5473 5480 5486 5491 5496 5502 5507 5512 5518 5524 5529 5535 5541 5547 5553 5558 5564 5569 5574 5580 5585 5590 5595 5600 5604 5609 5613 5617 5621
5277 5276 5275 5275 5274 5273 5272 5272 5272 5272 5272 5272 5273 5275 5277 5280 5284 5289 5294 5299 5306 5314 5324 5333 5339 5343 5348 5355 5363 5368 5368 5370 5375 5380 5386 5395 5402 5408 5414 5421 5428 5433 5438 5445 5452 5459 5466 5473 5479 5485 5491 5496 5501 5506 5512 5517 5524 5530 5536 5542 5548 5553 5559 5564 5570 5575 5580 5585 5590 5595 5600 5604 5608 5612
5277 5276 5275 5274 5273 5272 5272 5271 5271 5270 5270 5270 5271 5271 5272 5274 5277 5281 5284 5289 5295 5302 5309 5317 5323 5328 5333 5340 5349 5354 5353 5355 5365 5373 5378 5384 5390 5394 5398 5405 5413 5419 5424 5432 5439 5446 5453 5459 5466 5473 5479 5484 5490 5495 5500 5505 5512 5519 5526 5532 5537 5542 5548 5554 5559 5565 5570 5574 5579 5584 5589 5594 5598 5603
5276 5275 5274 5273 5272 5271 5271 5270 5270 5269 5269 5269 5269 5269 5270 5271 5273 5275 5277 5281 5285 5290 5297 5303 5308 5312 5318 5325 5333 5339 5339 5344 5356 5363 5365 5370 5377 5381 5385 5392 5400 5406 5413 5419 5426 5434 5440 5446 5453 5460 5466 5472 5478 5483 5489 5494 5501 5508 5514 5521 5526 5531 5536 5542 5548 5554 5559 5564 5569 5574 5578 5583 5588 5593
5276 5274 5273 5272 5272 5271 5270 5269 5269 5269 5268 5268 5268 5268 5268 5269 5270 5271 5273 5275 5278 5281 5286 5291 5294 5299 5306 5311 5317 5322 5326 5333 5342 5348 5350 5356 5365 5369 5371 5378 5388 5394 5399 5406 5413 5422 5429 5433 5439 5445 5452 5460 5467 5471 5478 5485 5491 5497 5502 5508 5514 5519 5525 5530 5536 5542 5548 5554 5559 5563 5568 5573 5578 5583
5276 5274 5273 5272 5271 5270 5270 5269 5268 5268 5268 5267 5267 5267 5267 5268 5268 5269 5270 5271 5272 5275 5278 5281 5285 5289 5294 5297 5301 5308 5313 5318 5326 5333 5336 5341 5349 5354 5357 5366 5378 5385 5388 5393 5399 5407 5414 5417 5421 5429 5437 5446 5453 5459 5467 5474 5480 5484 5489 5495 5501 5507 5513 5519 5524 5530 5537 5543 5548 5553 5558 5563 5567 5572
5276 5275 5273 5272 5271 5270 5269 5269 5268 5267 5267 5267 5266 5266 5266 5266 5267 5267 5268 5268 5269 5271 5272 5274 5277 5281 5283 5285 5290 5297 5301 5304 5310 5317 5321 5325 5333 5341 5346 5354 5368 5375 5376 5376 5380 5389 5396 5400 5405 5414 5424 5432 5440 5446 5454 5461 5466 5471 5477 5483 5489 5495 5501 5507 5513 5519 5525 5531 5537 5542 5547 5552 5557 5562
5276 5275 5273 5272 5271 5270 5269 5268 5268 5267 5267 5266 5266 5266 5266 5265 5265 5266 5266 5267 5267 5268 5269 5271 5272 5274 5275 5278 5282 5286 5288 5291 5296 5302 5307 5312 5318 5326 5333 5341 5353 5360 5358 5358 5363 5373 5381 5385 5389 5399 5410 5419 5426 5432 5440 5446 5451 5457 5464 5470 5477 5483 5489 5495 5502 5508 5513 5519 5525 5531 5536 5541 5546 5551
5275 5274 5273 5272 5271 5270 5269 5268 5268 5267 5266 5266 5265 5265 5265 5265 5264 5264 5265 5265 5266 5266 5267 5268 5268 5269 5271 5273 5274 5277 5279 5282 5286 5291 5295 5300 5304 5310 5318 5326 5335 5340 5341 5344 5350 5359 5369 5374 5376 5385 5397 5405 5411 5417 5425 5431 5436 5443 5450 5457 5464 5471 5477 5483 5489 5496 5502 5507 5513 5518 5524 5530 5535 5540
5276 5274 5273 5272 5271 5270 5269 5268 5267 5267 5266 5265 5265 5264 5264 5264 5264 5263 5263 5263 5264 5265 5265 5266 5265 5266 5267 5268 5268 5270 5273 5276 5279 5282 5285 5289 5292 5297 5304 5311 5319 5325 5329 5333 5337 5345 5357 5362 5363 5372 5384 5390 5393 5400 5408 5415 5421 5428 5436 5443 5450 5457 5464 5470 5476 5483 5489 5495 5501 5506 5512 5518 5524 5529
5275 5274 5273 5272 5271 5270 5269 5268 5267 5266 5266 5265 5264 5264 5263 5263 5263 5262 5262 5262 5262 5263 5263 5263 5263 5263 5264 5264 5265 5266 5268 5270 5272 5274 5277 5280 5283 5287 5293 5299 5305 5310 5314 5319 5324 5332 5343 5348 5349 5358 5369 5373 5375 5383 5391 5398 5406 5413 5421 5428 5436 5443 5450 5456 5463 5469 5476 5483 5489 5494 5500 5505 5511 5517
5274 5273 5272 5271 5270 5269 5268 5267 5266 5266 5265 5264 5264 5263 5263 5262 5262 5261 5261 5261 5261 5261 5261 5261 5261 5261 5261 5262 5262 5263 5264 5266 5267 5268 5272 5274 5276 5279 5284 5289 5293 5297 5301 5307 5312 5319 5329 5333 5335 5342 5351 5355 5359 5367 5376 5383 5390 5397 5404 5412 5420 5428 5436 5443 5449 5456 5463 5470 5476 5482 5488 5493 5498 5504
5273 5272 5271 5269 5269 5268 5267 5266 5265 5264 5264 5263 5262 5262 5261 5261 5260 5259 5259 5260 5260 5259 5259 5259 5259 5259 5259 5260 5260 5260 5261 5262 5263 5265 5268 5270 5271 5274 5278 5282 5285 5289 5293 5297 5300 5307 5315 5318 5320 5326 5333 5338 5344 5353 5361 5368 5375 5380 5388 5396 5405 5413 5421 5428 5436 5443 5450 5457 5463 5469 5475 5480 5485 5490
5271 5270 5269 5268 5267 5266 5265 5264 5263 5262 5262 5261 5260 5260 5259 5259 5258 5258 5258 5258 5258 5258 5258 5258 5257 5257 5257 5258 5258 5258 5259 5260 5261 5263 5265 5265 5267 5271 5274 5277 5279 5283 5286 5288 5292 5297 5303 5305 5307 5312 5317 5323 5330 5338 5344 5351 5358 5364 5371 5380 5389 5397 5405 5413 5421 5429 5437 5444 5450 5456 5461 5467 5472 5477
5269 5268 5267 5266 5265 5264 5263 5262 5261 5260 5260 5259 5258 5258 5257 5256 5255 5255 5256 5256 5256 5256 5256 5255 5255 5255 5255 5255 5256 5256 5257 5257 5258 5260 5261 5262 5264 5267 5270 5272 5275 5278 5280 5282 5285 5289 5293 5295 5298 5300 5304 5310 5316 5322 5328 5334 5341 5348 5355 5363 5373 5382 5390 5397 5406 5415 5423 5431 5437 5443 5448 5453 5458 5464
5267 5266 5265 5264 5263 5262 5261 5260 5259 5258 5258 5257 5256 5255 5255 5254 5253 5253 5253 5253 5253 5253 5253 5253 5253 5253 5252 5253 5253 5254 5254 5255 5256 5257 5259 5260 5261 5264 5266 5268 5271 5274 5275 5277 5280 5283 5286 5289 5291 5293 5296 5300 5305 5309 5314 5319 5326 5332 5339 5347 5357 5366 5375 5382 5391 5401 5409 5416 5423 5430 5434 5439 5446 5452
5265 5264 5263 5262 5261 5260 5259 5258 5257 5256 5256 5255 5254 5253 5252 5251 5251 5250 5250 5250 5250 5250 5249 5249 5249 5249 5250 5250 5250 5251 5251 5252 5253 5254 5255 5257 5258 5260 5262 5264 5267 5269 5271 5273 5276 5279 5282 5284 5286 5288 5290 5293 5296 5299 5302 5307 5312 5319 5325 5332 5341 5351 5359 5366 5375 5386 5395 5401 5408 5416 5421 5426 5432 5439
5264 5262 5261 5260 5259 5258 5257 5256 5255 5254 5253 5253 5252 5251 5250 5249 5248 5247 5247 5246 5246 5246 5245 5245 5246 5246 5246 5246 5247 5247 5248 5248 5249 5251 5252 5253 5255 5256 5258 5260 5263 5266 5267 5270 5272 5275 5278 5280 5283 5285 5286 5288 5290 5292 5294 5298 5302 5307 5313 5320 5327 5336 5344 5351 5360 5370 5379 5386 5392 5400 5406 5410 5417 5423
5263 5261 5259 5258 5257 5256 5255 5254 5253 5252 5251 5250 5249 5248 5248 5247 5245 5245 5244 5243 5242 5241 5241 5241 5241 5242 5242 5242 5243 5243 5244 5245 5245 5247 5248 5250 5251 5253 5255 5257 5259 5262 5264 5267 5269 5271 5274 5276 5279 5281 5283 5285 5286 5287 5289 5291 5295 5299 5304 5309 5316 5323 5330 5337 5346 5356 5363 5369 5376 5383 5389 5395 5402 5409
5261 5260 5258 5257 5256 5255 5253 5252 5251 5250 5249 5248 5247 5246 5245 5244 5242 5241 5240 5239 5238 5237 5237 5237 5237 5237 5237 5238 5238 5239 5239 5240 5242 5243 5245 5246 5248 5249 5251 5253 5256 5258 5261 5263 5265 5267 5270 5272 5275 5277 5279 5281 5283 5285 5285 5286 5289 5292 5296 5301 5306 5312 5317 5324 5333 5342 5348 5354 5360 5366 5373 5380 5387 5395
5260 5258 5256 5255 5254 5253 5252 5251 5249 5248 5247 5246 5245 5243 5242 5240 5239 5237 5236 5234 5233 5232 5232 5231 5231 5231 5231 5232 5233 5235 5236 5237 5238 5240 5241 5243 5244 5246 5248 5250 5252 5255 5257 5259 5261 5263 5266 5268 5271 5273 5275 5278 5280 5282 5283 5284 5285 5288 5291 5295 5298 5303 5307 5313 5321 5328 5333 5339 5345 5352 5358 5366 5373 5381
5258 5256 5255 5253 5252 5251 5250 5249 5247 5246 5245 5244 5242 5241 5239 5237 5236 5234 5232 5230 5228 5227 5225 5224 5224 5224 5224 5226 5228 5230 5233 5234 5235 5236 5238 5239 5241 5242 5244 5246 5248 5251 5253 5254 5256 5258 5261 5264 5267 5269 5272 5274 5277 5279 5281 5282 5283 5285 5288 5290 5293 5296 5300 5305 5311 5316 5321 5328 5334 5340 5346 5354 5362 5368
5255 5254 5253 5252 5250 5249 5248 5247 5245 5244 5243 5241 5240 5238 5237 5235 5233 5231 5229 5227 5224 5221 5218 5217 5216 5217 5218 5220 5223 5226 5228 5230 5232 5233 5235 5236 5238 5239 5241 5242 5244 5246 5248 5250 5251 5254 5257 5260 5263 5266 5268 5271 5273 5276 5279 5281 5282 5283 5285 5287 5290 5292 5296 5299 5303 5308 5313 5319 5325 5331 5337 5345 5351 5356
5253 5252 5251 5250 5248 5247 5246 5245 5243 5242 5240 5239 5237 5236 5234 5232 5230 5228 5226 5223 5219 5215 5212 5211 5210 5210 5212 5215 5218 5221 5224 5227 5228 5230 5232 5233 5235 5236 5238 5239 5241 5243 5244 5245 5247 5249 5252 5255 5259 5262 5265 5267 5270 5273 5276 5278 5280 5282 5283 5285 5287 5290 5293 5296 5299 5303 5307 5312 5318 5324 5329 5336 5341 5345
5249 5249 5248 5247 5246 5245 5244 5242 5241 5240 5238 5237 5235 5233 5231 5229 5227 5225 5223 5219 5215 5212 5209 5207 5206 5206 5208 5210 5213 5217 5220 5223 5225 5227 5229 5230 5232 5233 5235 5237 5238 5239 5240 5241 5243 5245 5248 5251 5254 5258 5261 5264 5267 5270 5273 5275 5278 5279 5281 5283 5285 5288 5291 5294 5297 5300 5304 5307 5312 5317 5323 5328 5333 5337
5246 5245 5245 5244 5243 5242 5241 5240 5239 5237 5236 5235 5233 5231 5229 5227 5225 5223 5220 5217 5213 5209 5206 5204 5204 5204 5205 5208 5210 5214 5217 5220 5223 5225 5227 5228 5229 5231 5233 5234 5235 5236 5237 5238 5240 5242 5244 5246 5250 5253 5257 5260 5263 5266 5269 5272 5275 5277 5279 5282 5284 5287 5289 5292 5294 5298 5301 5304 5308 5312 5317 5322 5326 5331
5242 5242 5241 5241 5241 5240 5239 5238 5236 5235 5234 5232 5231 5229 5227 5225 5223 5221 5218 5215 5211 5208 5205 5203 5202 5203 5204 5206 5208 5211 5215 5218 5221 5223 5225 5226 5228 5229 5230 5232 5233 5234 5235 5236 5237 5239 5241 5242 5245 5249 5253 5257 5260 5263 5266 5269 5272 5274 5277 5280 5282 5285 5287 5289 5292 5295 5298 5301 5305 5309 5313 5317 5322 5326
5239 5239 5238 5238 5238 5237 5236 5235 5234 5233 5231 5230 5229 5227 5225 5223 5221 5219 5217 5214 5210 5207 5204 5202 5202 5202 5203 5205 5207 5210 5213 5216 5219 5222 5223 5225 5226 5228 5229 5230 5231 5232 5233 5234 5235 5236 5238 5240 5242 5245 5249 5253 5257 5260 5263 5266 5269 5271 5274 5277 5280 5282 5285 5287 5290 5293 5296 5299 5302 5306 5310 5314 5318 5322
5235 5235 5235 5235 5234 5234 5234 5233 5231 5230 5229 5228 5226 5225 5223 5222 5220 5218 5216 5213 5210 5207 5204 5202 5202 5202 5203 5204 5206 5209 5213 5216 5218 5221 5222 5224 5225 5227 5228 5229 5230 5231 5232 5233 5234 5235 5236 5238 5240 5243 5246 5251 5255 5258 5260 5263 5266 5268 5271 5274 5277 5280 5283 5286 5288 5291 5294 5297 5300 5303 5307 5310 5314 5317
5231 5231 5231 5231 5231 5231 5231 5230 5229 5228 5227 5226 5225 5223 5222 5220 5219 5217 5215 5213 5210 5207 5205 5203 5202 5203 5203 5205 5207 5209 5212 5215 5218 5220 5222 5223 5224 5225 5226 5227 5228 5230 5231 5232 5233 5234 5235 5236 5238 5240 5244 5248 5252 5255 5257 5260 5262 5265 5268 5271 5274 5277 5280 5282 5285 5288 5291 5294 5297 5300 5303 5306 5309 5312
5228 5227 5227 5227 5227 5227 5227 5227 5226 5225 5224 5223 5223 5222 5220 5219 5218 5216 5215 5213 5211 5208 5206 5204 5203 5204 5205 5206 5208 5210 5213 5215 5218 5220 5221 5222 5224 5225 5226 5227 5228 5229 5230 5231 5232 5233 5234 5235 5237 5239 5241 5245 5248 5251 5254 5257 5260 5262 5265 5268 5270 5272 5275 5278 5281 5284 5287 5289 5292 5295 5298 5301 5304 5307
5224 5223 5223 5223 5223 5224 5224 5224 5223 5223 5222 5221 5221 5220 5219 5218 5217 5215 5214 5213 5211 5209 5207 5205 5205 5205 5206 5207 5209 5211 5213 5216 5218 5219 5221 5222 5223 5224 5225 5227 5228 5228 5229 5230 5231 5232 5233 5234 5236 5238 5240 5242 5245 5247 5250 5253 5256 5259 5261 5263 5265 5268 5270 5273 5275 5278 5281 5284 5287 5290 5293 5296 5299 5302
5220 5219 5219 5219 5220 5220 5220 5220 5220 5220 5220 5219 5219 5218 5217 5216 5215 5215 5214 5212 5211 5210 5208 5207 5206 5206 5207 5208 5210 5211 5213 5215 5217 5219 5220 5222 5223 5224 5225 5226 5227 5228 5229 5230 5231 5232 5233 5234 5235 5237 5238 5240 5242 5244 5247 5249 5251 5254 5257 5259 5261 5264 5266 5268 5271 5274 5276 5279 5282 5285 5288 5291 5294 5297
5216 5216 5216 5216 5216 5216 5216 5217 5217 5217 5217 5217 5216 5216 5216 5215 5214 5214 5213 5212 5211 5210 5209 5208 5207 5207 5208 5208 5210 5211 5213 5214 5216 5218 5220 5221 5222 5223 5224 5225 5227 5228 5229 5230 5230 5231 5233 5234 5235 5236 5237 5239 5241 5242 5244 5246 5249 5251 5253 5255 5257 5259 5262 5264 5266 5269 5272 5275 5277 5280 5283 5286 5289 5292
5212 5212 5212 5212 5213 5213 5213 5213 5214 5214 5214 5214 5214 5214 5214 5213 5213 5212 5212 5212 5211 5210 5210 5209 5208 5208 5208 5208 5209 5210 5212 5213 5215 5217 5218 5219 5221 5222 5223 5224 5225 5227 5228 5229 5230 5231 5232 5233 5234 5235 5237 5238 5240 5241 5243 5245 5247 5249 5250 5252 5254 5256 5258 5260 5262 5265 5267 5269 5272 5275 5278 5281 5284 5287
5208 5208 5209 5209 5209 5209 5209 5210 5210 5211 5211 5211 5211 5211 5212 5212 5211 5211 5211 5211 5210 5210 5210 5209 5209 5208 5208 5208 5209 5210 5211 5212 5213 5215 5216 5218 5219 5220 5221 5223 5224 5225 5226 5227 5228 5230 5231 5232 5233 5235 5236 5237 5239 5240 5242 5244 5246 5247 5249 5250 5252 5253 5255 5257 5259 5261 5263 5265 5267 5270 5273 5276 5279 5281
Wind_Speed
69 77 82 87 94 102 109 112 110 109 108 108 108 108 107 106 105 104 103 102 101 103 104 104 104 104 105 104 103 102 101 100 99 98 97 97 96 94 93 92 91 90 89 88 87 86 85 85 85 83 82 80 78 77 76 74 73 71 69 67 66 63 61 61 60 60 59 58 57 57 58 60 62 64
56 65 73 80 85 91 99 107 112 113 111 109 109 109 109 109 108 107 106 104 101 102 104 105 105 105 106 106 105 104 103 102 102 101 100 99 98 97 97 95 94 93 92 91 90 88 87 87 86 86 85 83 82 80 79 77 76 74 72 71 70 67 64 62 61 59 60 60 60 59 59 59 59 61
42 51 60 69 77 83 89 96 104 111 114 113 111 110 110 110 110 109 108 106 103 102 103 104 105 106 107 107 106 106 105 104 104 104 103 102 101 100 99 98 97 96 95 94 93 92 90 89 88 87 86 85 85 84 82 81 79 77 75 74 73 71 67 66 64 61 60 60 60 61 60 58 57 58
28 36 46 55 64 73 80 86 92 100 108 113 115 113 111 111 111 111 111 109 106 104 104 104 104 105 106 107 107 107 107 106 106 106 106 105 104 102 101 100 99 99 98 97 96 95 94 93 91 89 88 87 86 86 85 84 83 81 79 77 75 74 72 70 68 66 63 61 60 60 60 58 56 55
15 21 30 39 49 58 68 76 83 89 96 104 111 115 115 114 112 112 112 111 107 107 107 106 105 106 107 107 108 108 108 108 108 108 108 107 106 105 104 102 101 101 101 100 99 98 96 95 94 93 91 90 89 88 87 86 85 84 82 80 79 77 76 74 72 71 68 65 62 60 60 59 56 53
10 11 16 23 32 43 53 62 71 79 86 92 100 108 114 116 116 114 113 112 110 109 109 109 108 108 108 108 108 109 109 109 109 110 109 109 109 108 107 106 105 103 102 102 102 101 100 98 97 96 95 93 92 91 89 88 87 87 85 84 82 81 79 77 76 74 73 70 68 64 62 62 60 56
9 9 10 13 18 26 36 46 56 65 74 82 88 95 103 110 115 117 116 114 113 112 111 110 109 109 109 109 109 109 110 110 110 110 110 111 111 110 109 109 108 106 105 104 104 103 102 101 100 99 98 97 95 94 93 91 89 89 88 86 85 84 82 81 79 77 76 74 72 69 67 66 64 61
8 9 9 11 11 14 19 28 38 49 59 68 77 84 90 97 105 113 117 118 116 115 113 111 109 109 110 110 110 109 110 110 111 112 112 112 112 112 111 111 110 109 108 107 106 105 104 103 103 102 100 99 98 97 96 94 93 91 90 89 87 86 85 83 82 80 78 77 76 73 70 69 68 65
8 8 8 9 9 9 11 15 22 31 41 52 61 70 78 86 93 101 109 115 118 118 116 113 111 110 110 110 110 111 111 112 113 113 112 112 112 112 112 112 111 111 110 109 108 107 106 105 105 104 103 102 101 100 99 97 96 94 93 91 89 88 87 86 84 83 81 80 79 77 75 73 71 68
7 7 7 8 8 9 9 10 11 16 23 33 43 53 63 72 80 88 95 104 112 117 118 117 115 114 112 111 111 112 113 113 114 114 113 113 112 112 112 112 112 112 111 111 110 109 108 107 106 106 105 104 103 103 102 100 99 98 96 94 92 91 89 88 87 85 84 82 81 80 79 77 76 74
6 6 6 6 7 8 9 9 9 9 11 16 24 34 44 54 64 73 81 89 97 106 113 117 119 118 117 115 113 112 113 114 114 115 114 113 112 112 112 112 112 112 112 112 112 111 110 110 109 108 107 106 105 104 104 103 102 100 98 97 96 94 92 90 89 88 86 85 83 82 81 80 79 79
5 5 5 5 6 6 8 8 8 8 7 8 11 17 26 35 45 54 64 73 81 90 98 107 113 118 120 119 117 115 116 116 115 114 114 114 113 113 113 113 112 112 113 112 112 112 112 111 111 110 109 108 107 106 105 105 104 103 101 99 98 97 96 93 92 90 89 88 87 85 84 83 82 81
6 5 4 5 5 5 6 7 7 7 7 7 8 10 12 18 26 35 45 55 64 73 81 90 99 108 114 118 120 120 119 118 116 115 115 115 115 115 115 114 114 113 113 112 112 111 112 112 112 112 111 110 109 108 107 106 105 104 103 101 100 99 98 97 95 93 91 89 89 87 86 85 84 83
6 6 5 5 5 5 5 5 6 7 7 7 7 7 7 9 13 19 26 35 45 55 64 73 82 90 98 106 113 118 121 121 120 119 118 117 117 117 117 116 115 114 114 113 112 111 111 111 112 112 113 112 111 110 109 107 106 105 105 104 102 100 100 99 98 96 93 91 90 89 88 87 86 85
7 7 6 6 5 5 5 4 5 6 7 8 7 5 5 6 8 11 15 21 28 36 45 55 64 72 80 89 98 106 112 117 120 121 122 121 120 119 119 118 116 115 115 115 114 113 112 113 113 112 112 112 112 112 111 109 108 107 106 106 105 103 101 100 100 99 97 94 92 90 89 88 88 87
7 7 7 7 6 6 6 5 4 5 6 7 7 6 5 5 6 7 10 13 18 23 30 38 46 54 63 71 79 88 96 103 109 115 119 122 123 123 122 120 118 117 117 118 118 117 115 115 115 113 112 111 111 111 111 111 111 110 109 108 107 106 104 102 101 100 99 97 95 92 90 89 89 88
6 7 7 7 8 7 7 7 6 5 5 6 6 6 6 6 5 6 7 9 11 15 20 26 32 39 46 54 61 69 77 85 93 100 107 113 119 122 123 123 121 120 121 121 121 120 119 118 118 116 114 112 111 111 111 111 112 112 112 111 109 108 107 106 104 102 101 100 98 96 93 91 90 89
7 7 7 7 7 7 8 8 7 7 6 6 7 6 6 6 6 6 6 7 8 9 13 17 21 27 33 39 45 52 60 68 75 83 90 97 104 111 117 121 123 124 124 124 124 123 121 121 121 119 116 115 114 113 111 111 111 111 111 111 111 111 110 109 107 105 104 103 101 99 97 95 93 91
7 7 7 7 7 7 7 8 8 8 7 7 7 7 7 7 7 7 7 8 8 8 9 12 16 19 22 27 33 39 46 52 58 65 72 79 87 94 102 109 115 119 122 124 125 125 124 124 123 122 120 118 117 116 115 113 112 112 111 111 110 110 111 110 110 109 107 105 104 103 101 99 97 95
8 8 8 8 8 8 8 8 8 8 8 8 8 8 8 8 8 8 9 9 9 9 10 12 14 15 16 20 24 28 33 38 43 49 54 61 68 75 82 90 96 104 110 115 119 122 124 126 126 125 124 123 122 121 119 117 115 114 113 111 110 109 109 109 110 110 109 108 106 105 104 102 101 99
11 11 11 11 11 11 10 10 10 10 10 10 10 10 9 9 9 10 11 11 11 11 12 14 15 15 15 16 19 21 25 29 34 39 42 46 51 57 64 70 77 84 91 99 106 111 116 121 124 125 126 127 126 125 123 121 119 117 116 114 113 111 110 109 108 108 108 108 107 106 106 105 103 102
12 12 13 13 12 12 12 12 12 12 12 12 11 11 11 11 12 12 12 11 11 12 13 14 16 16 15 15 17 18 20 24 29 34 36 38 41 45 48 52 57 63 69 77 85 92 99 106 111 116 121 126 127 128 127 125 123 122 120 118 116 114 113 111 109 108 107 107 106 106 105 105 104 103
13 12 12 13 13 12 12 12 13 13 14 14 13 13 13 14 15 15 14 12 12 13 14 15 17 18 17 17 17 18 19 21 25 30 34 36 36 36 37 38 41 45 49 55 62 69 77 84 90 98 106 113 119 124 126 127 127 126 124 122 120 118 116 115 112 111 109 108 107 106 105 105 104 104
12 11 11 11 12 12 12 12 12 12 13 14 15 15 15 16 18 17 15 14 15 15 15 16 17 18 19 18 18 19 20 22 23 25 29 33 34 32 31 31 32 32 34 37 41 47 54 60 67 75 85 94 103 110 115 120 124 125 126 125 124 122 120 118 116 114 112 110 109 108 107 106 105 105
12 11 10 10 11 11 12 11 11 11 12 12 14 15 16 17 19 18 17 17 17 17 17 17 18 18 19 19 20 20 21 22 23 23 25 28 30 30 30 30 30 30 30 31 31 33 37 40 45 52 61 71 82 90 98 106 112 117 120 122 124 124 123 122 120 118 115 113 112 110 109 108 107 106
12 11 11 11 11 11 11 12 12 11 11 11 12 14 15 17 18 18 18 18 19 19 19 20 20 20 20 20 21 22 22 23 23 24 25 27 29 30 31 32 32 32 32 33 31 31 31 32 32 34 40 48 57 67 77 86 95 103 109 113 116 119 121 122 122 121 119 117 115 113 112 111 110 108
10 9 10 11 11 12 12 12 13 13 13 13 13 14 15 16 18 19 19 20 20 21 21 22 22 22 22 21 22 22 24 25 25 25 25 27 29 30 32 33 33 33 34 35 34 33 32 31 28 27 29 32 37 45 54 65 75 84 92 99 104 108 112 115 117 118 118 118 118 117 116 115 113 112
11 8 8 9 10 11 12 13 14 15 15 15 15 15 15 16 18 19 20 21 22 23 23 23 23 23 23 23 23 24 24 26 26 26 26 27 28 29 31 32 32 32 34 37 37 36 35 33 30 27 26 25 26 30 37 45 54 64 72 81 88 94 99 104 106 109 111 113 115 116 117 117 116 115
12 9 8 8 9 10 11 12 14 15 15 16 16 16 16 17 18 20 21 22 23 24 25 25 25 25 25 25 25 25 26 26 25 25 26 27 27 28 29 30 30 31 33 37 40 40 38 37 34 30 27 26 25 24 26 31 38 46 54 63 71 78 85 91 94 97 101 103 106 109 112 115 115 116
13 11 10 9 9 10 11 12 13 14 15 16 16 16 17 18 19 20 22 23 24 25 27 28 28 29 29 29 28 27 26 25 25 25 26 26 27 28 29 29 30 30 32 35 40 43 42 40 38 34 30 29 27 25 24 26 29 34 40 47 55 63 71 78 83 87 90 94 97 101 105 108 110 112
15 14 12 11 11 12 12 13 14 15 16 16 16 16 17 18 20 21 22 24 26 27 29 29 30 31 32 32 30 28 26 26 26 26 26 26 26 27 28 29 29 31 33 35 39 44 45 43 41 37 33 31 30 27 25 24 25 27 29 35 42 49 56 63 71 77 82 86 89 93 97 100 103 105
16 15 14 13 13 13 14 15 15 15 16 16 16 16 16 18 20 21 22 24 27 28 27 26 27 29 32 32 31 29 27 27 26 25 24 24 25 26 26 27 28 30 32 35 37 41 45 46 44 40 36 34 33 30 28 25 24 24 25 27 31 37 43 49 57 65 72 77 81 84 87 89 93 97
16 16 15 14 14 15 16 16 16 16 16 17 17 16 16 17 19 21 22 25 26 26 23 21 21 24 27 29 29 29 28 28 26 24 22 22 23 24 24 25 26 28 30 33 34 37 42 47 47 43 38 36 35 33 30 29 27 26 27 27 27 30 34 38 43 50 57 64 70 73 74 75 79 85
17 17 16 15 15 16 17 18 17 17 17 17 17 16 15 16 18 20 22 24 24 22 19 16 16 18 21 24 27 28 28 28 26 24 22 21 22 23 23 24 25 26 28 30 31 33 37 44 48 46 41 38 37 35 33 32 31 30 30 30 30 30 31 33 35 38 43 49 56 62 64 65 67 71
19 18 18 17 17 17 18 19 18 17 16 16 17 16 15 16 18 19 20 23 22 17 14 12 11 13 16 19 24 27 28 28 26 24 21 20 20 21 22 23 24 25 26 28 29 30 32 39 47 49 45 41 40 38 36 35 34 34 34 33 33 33 33 34 34 34 36 39 45 52 58 61 62 63
20 20 19 18 18 18 19 20 19 18 17 16 16 16 15 15 17 18 19 21 20 15 10 8 8 10 13 17 21 26 28 27 25 23 20 19 19 20 21 21 22 23 24 25 26 28 29 34 43 50 48 43 41 41 39 38 37 37 37 36 36 36 36 36 36 36 36 36 39 43 49 55 59 61
21 21 20 19 19 19 19 20 20 19 17 16 16 15 15 15 16 16 17 19 18 13 8 5 5 8 12 16 21 25 27 26 24 21 19 18 18 19 19 20 20 20 21 22 23 24 25 29 38 47 50 46 43 43 42 40 39 39 39 39 39 38 38 38 38 38 37 37 38 39 41 45 51 56
21 21 22 21 20 19 19 20 20 19 18 16 16 15 14 13 14 15 15 17 17 13 7 2 3 8 11 16 21 25 26 25 23 20 17 16 16 17 18 18 18 18 18 19 20 20 22 24 31 41 49 48 44 43 43 43 42 41 41 41 41 40 40 40 40 40 39 38 38 39 40 41 43 47
20 21 22 22 21 20 19 20 20 20 19 17 15 15 14 13 13 13 13 14 14 12 7 1 4 8 12 16 21 24 25 24 22 18 16 15 16 17 17 17 17 16 16 16 16 17 19 20 23 31 41 47 47 45 44 44 44 44 43 42 42 41 40 41 41 41 41 41 41 41 41 42 44 45
20 20 21 22 22 21 20 20 20 20 19 17 16 15 14 13 12 11 11 11 12 11 6 2 5 9 13 17 21 22 23 22 20 18 16 15 15 16 16 15 15 15 15 15 14 15 16 17 18 22 29 38 44 46 46 45 45 45 45 45 45 45 44 44 43 43 43 43 43 43 43 43 44 45
20 20 20 21 22 21 21 20 20 20 19 18 16 14 14 13 11 10 9 9 9 9 6 2 6 11 14 17 19 20 20 20 19 18 16 15 15 14 14 13 14 14 14 14 14 14 14 15 16 18 20 25 31 38 42 45 46 47 47 47 46 47 47 48 47 47 47 46 46 46 46 46 46 46
20 20 20 20 20 21 21 20 20 20 19 18 16 14 13 13 11 10 8 7 6 6 6 3 6 11 15 17 18 19 19 20 19 19 18 17 16 15 14 13 13 13 13 13 13 13 13 14 15 16 18 20 22 26 30 34 39 42 45 46 47 47 47 48 49 50 50 50 50 49 49 49 49 49
20 20 20 20 20 20 21 21 20 20 19 18 16 14 13 12 11 9 8 6 4 3 4 4 5 10 14 17 19 19 20 20 20 19 18 18 17 17 16 15 15 14 14 13 13 13 13 14 14 15 16 17 19 20 22 24 26 29 32 36 39 41 43 45 47 50 52 53 53 54 54 53 52 52
21 20 20 20 20 20 21 21 20 19 19 18 17 15 13 12 11 10 8 6 4 2 1 4 5 7 12 16 18 19 20 20 20 20 20 19 19 19 18 17 17 16 16 15 15 15 14 15 15 15 15 15 16 17 18 19 20 21 23 25 26 28 30 33 35 38 42 45 48 50 52 53 54 54
21 20 20 20 20 19 20 20 20 19 19 18 17 16 14 12 11 10 8 7 5 4 2 3 5 7 9 12 15 18 20 21 21 21 21 21 21 21 20 20 19 19 18 18 17 17 17 16 16 16 16 16 16 17 17 17 18 18 19 20 21 22 23 24 25 26 28 30 32 34 37 39 41 43
Wind_Direction
240 239 239 239 237 235 234 233 232 233 233 233 233 233 232 231 230 229 228 228 229 230 229 228 229 229 230 229 229 228 228 228 229 229 229 228 228 227 227 227 227 228 228 228 228 228 228 228 227 227 226 226 226 226 227 228 228 227 226 226 228 230 231 231 232 231 228 227 228 230 233 235 235 236
243 240 239 239 239 238 236 234 233 232 233 233 234 233 233 233 231 230 229 228 228 230 231 231 230 230 230 230 230 230 229 229 229 229 229 229 229 229 228 227 227 227 228 229 229 228 228 228 229 229 228 227 226 226 227 227 228 228 228 228 228 228 229 230 232 232 230 229 228 227 229 233 234 234
246 243 241 239 238 238 238 237 235 234 233 233 233 234 234 234 233 232 231 230 228 229 231 232 232 231 231 231 231 231 230 230 229 229 229 229 229 229 229 229 228 228 228 228 229 229 229 229 229 229 229 229 228 227 227 227 228 228 228 229 229 229 228 228 229 230 230 231 231 229 229 232 234 235
254 248 244 242 240 238 238 238 237 236 235 233 233 233 234 234 234 234 233 231 229 229 230 231 232 233 233 231 231 231 231 231 230 230 230 229 229 229 229 229 230 229 229 228 228 229 230 230 230 229 229 229 230 229 229 228 228 228 229 229 230 230 229 228 228 229 229 230 231 230 229 230 232 234
271 258 250 246 243 240 239 238 238 238 237 235 234 233 233 233 234 234 234 233 231 230 231 230 231 232 234 233 232 231 231 232 232 231 231 230 230 230 230 230 230 230 230 230 229 229 229 230 231 231 230 229 229 230 230 230 229 228 228 229 229 230 230 230 230 229 229 228 229 229 228 228 227 229
290 277 263 253 247 243 241 239 238 238 238 237 236 235 234 233 233 234 235 234 233 232 232 231 231 232 233 235 235 234 233 233 233 233 233 232 231 231 230 230 230 230 230 230 231 230 230 230 230 231 232 231 230 230 230 230 230 230 229 229 229 230 230 230 230 230 230 229 228 228 228 227 226 226
291 283 276 268 258 250 245 241 239 238 238 238 237 237 236 234 234 234 234 234 234 233 233 233 233 233 233 234 236 236 236 235 235 234 234 234 233 232 232 231 231 230 230 230 231 231 231 231 231 231 232 232 232 232 231 230 230 231 231 230 229 230 230 230 230 230 231 231 230 228 227 227 228 228
295 284 277 277 274 262 251 244 241 239 238 238 237 237 237 236 235 234 234 234 233 233 234 234 234 234 234 234 235 236 237 237 237 236 235 235 234 234 233 233 232 231 231 231 230 231 231 232 232 231 231 232 233 233 233 232 231 230 231 231 231 230 230 230 231 230 231 231 231 230 228 227 228 228
303 294 283 279 278 273 262 253 246 242 239 238 238 237 237 236 236 235 235 234 234 233 233 233 234 234 234 234 234 235 236 237 237 238 237 236 236 235 235 234 234 233 232 232 231 231 231 231 232 232 232 232 232 233 233 234 233 232 231 231 231 232 231 231 231 231 231 231 231 231 230 227 227 227
308 302 294 284 277 272 269 266 258 249 243 240 238 237 237 236 236 236 236 235 235 234 233 233 233 234 234 234 234 235 235 236 237 238 238 238 237 237 237 236 236 235 234 233 232 232 231 231 231 232 232 232 233 233 233 233 234 234 234 233 232 232 232 232 231 231 231 231 231 231 231 229 227 226
314 311 305 294 282 273 270 271 269 261 253 245 240 237 236 236 236 236 236 236 236 235 234 234 233 234 234 234 234 235 235 236 236 237 238 239 239 239 238 238 237 237 236 235 234 233 232 232 231 232 232 232 233 233 234 234 233 233 234 235 234 233 233 232 232 232 231 231 231 231 231 231 230 229
311 312 309 301 292 281 274 271 270 265 260 253 246 240 236 235 235 235 236 236 236 236 235 234 234 234 235 235 234 234 235 236 236 237 238 238 239 239 239 239 238 238 237 237 236 235 234 233 232 232 232 232 232 233 233 234 234 234 233 234 235 235 235 234 233 232 232 231 231 230 230 231 231 231
302 303 304 300 296 290 283 277 271 265 258 252 251 248 242 238 236 235 235 235 235 235 235 235 235 235 235 235 235 235 236 236 236 236 237 237 238 239 239 240 240 239 239 238 238 237 237 236 235 234 232 232 232 232 233 233 234 235 235 234 234 235 236 236 235 234 233 232 232 231 231 230 230 231
297 298 300 302 299 294 289 285 276 268 259 252 252 252 249 246 242 238 236 234 234 234 234 234 234 235 235 235 235 235 236 236 236 237 237 237 237 238 239 239 240 240 241 240 239 239 238 238 237 236 235 234 233 233 233 233 234 234 235 235 234 234 235 236 236 235 235 234 233 232 232 232 231 231
302 303 305 305 303 299 294 287 277 272 267 263 259 251 244 245 245 242 238 234 232 232 232 232 233 233 234 234 235 235 236 236 236 237 237 237 237 237 238 239 239 240 241 242 241 240 240 239 238 237 237 236 235 234 234 233 233 234 234 235 235 235 234 235 236 236 236 235 234 233 233 232 232 232
310 311 312 312 313 312 309 302 289 278 275 275 271 258 245 241 241 242 239 235 231 229 229 230 230 231 232 233 233 234 235 236 236 236 237 237 238 237 238 238 238 239 240 241 241 241 241 241 240 239 238 237 236 236 235 235 234 234 234 234 235 235 235 235 235 236 236 236 235 234 233 233 233 232
331 327 324 323 322 320 317 314 309 297 286 283 280 269 255 246 242 242 243 241 234 229 228 229 229 229 230 231 231 232 233 234 235 236 236 237 237 238 238 238 238 238 239 240 240 240 241 241 242 241 240 239 238 237 236 236 236 235 235 234 234 235 236 236 235 235 236 236 236 235 234 233 233 233
9 2 357 349 341 333 328 322 315 307 298 291 287 280 268 258 251 246 247 249 245 237 232 231 231 230 230 230 230 230 231 232 233 234 235 236 237 237 237 238 238 238 238 239 240 240 240 241 242 242 241 241 240 239 238 237 237 236 236 235 235 235 235 236 236 235 236 236 236 236 235 234 234 234
4 2 359 355 351 346 339 332 325 317 310 303 296 289 280 273 265 254 248 247 246 240 233 235 238 236 233 232 231 230 230 231 232 233 233 234 235 236 236 237 237 237 238 239 240 240 240 241 242 242 242 242 241 241 240 239 238 237 236 236 236 235 235 236 236 236 236 236 236 237 237 236 235 235
336 335 333 331 329 327 322 320 318 315 313 310 303 296 288 283 275 263 255 252 248 239 231 234 242 242 237 237 236 234 231 231 231 232 232 232 233 234 235 236 236 236 237 238 239 239 240 241 241 242 242 242 242 241 241 240 240 239 238 237 236 236 235 235 236 236 236 236 237 237 237 237 237 237
318 318 317 314 313 310 306 303 300 298 298 297 296 295 292 287 280 271 267 263 257 248 237 236 243 245 240 238 240 237 234 233 232 231 230 230 231 232 232 233 234 235 236 237 238 238 239 239 240 241 241 241 242 242 241 241 241 240 240 238 237 236 235 235 235 236 236 237 237 237 238 238 238 238
308 309 310 309 308 305 301 298 295 291 288 286 285 285 284 283 278 274 275 275 270 263 253 245 246 248 243 238 239 239 236 234 235 232 227 226 229 231 231 232 233 234 234 235 236 237 237 238 239 240 240 241 241 241 242 241 241 241 240 240 239 238 237 236 235 235 235 236 237 237 238 238 238 238
303 306 309 310 309 307 303 299 295 292 289 286 283 281 278 277 274 272 275 276 272 268 262 254 251 251 247 239 235 236 237 236 236 233 226 223 226 230 231 231 232 232 233 234 235 235 235 236 237 238 239 239 240 240 241 241 241 241 241 240 240 239 238 238 237 236 235 235 236 237 237 238 238 238
302 306 309 312 312 310 307 302 297 293 290 287 285 281 277 274 274 274 275 272 267 265 262 258 255 253 252 246 236 232 233 235 235 232 228 225 226 227 226 224 223 223 226 228 229 230 231 233 235 236 237 238 238 239 239 239 240 240 241 240 240 240 239 239 238 237 237 236 236 236 237 237 238 238
305 308 311 314 315 314 313 309 303 297 293 290 287 283 280 277 277 278 276 270 267 265 262 259 256 254 253 251 243 235 232 233 233 231 228 227 227 225 222 218 213 211 213 215 217 221 224 228 232 235 236 236 237 237 238 238 238 239 239 240 240 240 240 239 239 238 238 237 237 237 237 237 237 238
307 312 315 317 317 316 315 313 309 304 299 294 289 286 284 282 281 280 277 272 270 267 263 260 257 253 250 249 245 240 235 232 231 229 227 227 227 225 223 220 215 211 211 210 209 212 217 222 227 233 236 237 237 236 237 237 237 237 237 238 238 238 239 239 239 239 238 238 238 237 238 238 238 237
299 307 313 316 317 317 316 315 313 309 305 300 294 289 286 284 282 281 279 276 273 269 266 262 258 254 249 245 242 240 237 233 230 228 224 223 223 222 223 224 223 220 217 213 208 209 213 216 220 227 233 236 238 237 236 235 235 236 236 236 237 237 237 237 238 238 238 238 238 238 238 238 238 238
294 300 306 308 310 314 315 315 313 310 307 304 300 296 292 288 285 282 280 277 274 271 268 264 260 256 250 244 240 238 236 233 230 227 223 221 221 220 220 223 225 225 223 218 212 210 213 213 213 218 222 226 233 239 239 236 233 233 234 234 234 235 235 235 236 236 236 236 236 236 237 237 237 237
292 294 299 302 305 308 310 311 309 308 306 304 302 301 298 296 292 289 284 279 274 271 267 263 260 256 251 246 239 235 234 232 231 228 225 223 222 222 221 222 223 224 224 221 217 214 214 214 212 212 214 216 221 232 240 240 235 230 230 231 231 231 232 233 233 233 233 234 234 234 235 235 236 236
291 292 296 302 305 306 307 306 305 305 305 303 302 302 301 300 298 295 290 284 279 274 268 263 259 254 250 245 240 235 233 232 231 229 227 225 224 224 224 224 223 223 224 224 221 218 217 215 211 210 211 212 214 218 226 236 238 232 228 227 228 228 229 229 229 229 230 230 231 231 232 233 233 234
288 291 296 301 305 306 306 305 304 303 304 304 302 302 303 304 303 300 295 291 287 282 275 267 258 251 246 242 239 235 231 231 230 228 228 227 225 225 226 225 224 223 224 225 224 221 218 215 212 210 209 210 211 211 213 221 232 235 229 225 224 225 226 226 226 226 226 227 228 229 230 230 231 232
279 284 290 296 303 307 307 305 302 301 301 302 302 303 304 305 306 305 303 300 297 292 284 272 258 248 242 239 235 231 228 228 229 228 228 228 227 227 227 226 225 225 225 226 226 223 220 216 212 210 209 208 209 209 208 207 215 225 227 223 221 222 222 223 224 225 225 225 225 227 228 228 229 230
274 279 285 292 300 305 307 307 304 301 301 301 301 304 307 309 311 311 310 310 308 301 291 278 260 246 238 233 228 224 222 224 226 226 226 227 227 228 228 227 226 226 226 227 227 225 221 217 212 210 209 208 208 208 206 202 201 207 215 217 216 217 219 221 222 224 225 225 225 225 226 227 227 228
275 279 284 290 296 300 303 305 304 301 300 299 300 304 310 314 316 317 317 318 315 305 293 281 261 241 232 226 221 216 215 218 222 222 222 223 225 227 227 227 228 228 227 227 226 225 222 218 214 212 210 210 209 209 207 203 199 200 206 211 212 212 214 217 220 221 223 223 224 223 223 223 225 227
275 278 283 288 292 296 300 303 302 300 298 297 298 304 312 317 319 320 323 325 322 310 297 285 259 233 223 218 213 208 207 212 216 217 217 219 222 225 226 226 227 227 227 227 226 224 222 219 215 213 211 211 210 210 209 206 202 200 202 206 209 210 210 213 216 218 219 220 221 221 221 220 221 223
272 272 276 282 287 291 296 300 301 299 298 297 298 304 312 319 322 324 329 332 330 321 309 293 255 223 212 209 205 202 202 205 211 213 213 215 217 220 222 223 224 224 225 227 226 224 223 221 217 213 212 211 210 211 212 210 206 203 202 203 206 208 209 211 213 215 217 218 219 221 221 221 221 222
269 267 269 274 280 286 291 297 299 299 298 297 299 304 310 318 323 326 333 339 339 334 324 302 239 211 203 199 197 196 197 200 205 208 209 213 216 217 218 218 219 221 223 225 228 226 224 222 218 214 213 212 211 212 214 214 211 208 206 205 206 208 209 210 212 214 216 217 218 220 221 222 223 224
269 265 265 268 273 280 287 293 297 298 297 296 298 302 307 315 322 327 335 343 346 345 341 322 196 193 192 189 188 191 193 196 200 203 206 210 213 212 212 212 214 217 220 222 225 226 224 223 220 217 215 214 213 214 216 218 217 215 211 209 209 211 212 213 215 217 219 220 220 220 220 220 222 224
270 266 264 265 268 273 280 288 294 297 297 294 295 298 302 309 319 325 333 344 352 353 353 18 161 173 179 181 183 186 190 193 195 197 199 204 206 207 209 210 211 213 215 217 219 221 221 222 222 219 218 217 216 216 217 219 221 221 220 217 215 215 216 216 217 217 219 221 222 223 223 224 224 224
272 267 264 263 264 267 273 282 290 295 295 292 290 293 297 302 311 320 328 341 356 2 5 62 147 160 170 176 180 184 188 191 192 193 195 199 202 204 206 208 208 208 208 208 208 210 214 216 217 218 219 219 220 220 221 221 221 223 225 225 225 224 224 224 223 221 220 220 220 222 224 226 228 228
273 270 267 264 263 264 268 275 283 290 291 288 286 287 292 296 303 311 319 333 356 11 20 76 149 158 165 172 178 182 187 192 193 195 197 199 200 202 204 204 203 202 201 200 199 200 203 207 209 210 212 215 218 221 223 225 226 226 228 230 230 230 230 230 229 228 226 225 224 224 224 225 227 229
272 271 270 268 266 264 265 269 276 283 286 284 280 281 284 289 295 301 306 316 345 17 35 75 153 164 167 172 178 184 190 195 197 199 201 203 205 206 206 204 203 202 201 198 195 193 194 197 200 203 205 208 211 214 218 222 225 227 229 231 233 233 233 233 232 231 230 229 229 229 228 228 228 229
270 271 271 270 268 265 264 265 269 276 280 280 276 274 275 281 287 291 292 296 310 8 48 79 140 169 175 179 184 188 193 198 201 203 205 208 210 212 213 212 211 209 207 205 202 198 196 195 195 196 198 201 205 208 210 213 216 220 223 227 230 232 233 234 234 234 233 233 232 232 232 231 231 232
266 268 268 268 266 265 263 262 263 269 275 275 272 269 267 271 277 280 279 278 278 278 84 96 123 158 178 187 192 195 198 200 204 206 208 210 213 215 216 217 218 216 213 211 210 209 206 204 202 201 200 199 201 203 204 205 207 209 212 215 219 222 225 228 230 231 233 234 235 235 236 236 236 237
261 263 264 265 263 262 261 259 258 262 269 271 268 264 262 262 266 268 268 266 261 246 204 150 136 145 163 180 191 198 203 205 207 209 211 213 215 218 219 220 221 221 219 216 216 215 215 214 213 212 211 210 209 208 206 205 205 205 207 210 212 214 216 218 221 223 226 228 231 233 234 235 237 238